Location: Salisbury
(38.3600°N, 75.6000°W)
Time: 02:33:11
(UTC-04:00)

Daily predictions for brighter satellites

Satellite Brightness Start Highest point End
(mag) Time Altitude Azimuth Time Altitude Azimuth Time Altitude Azimuth
USA 234 4.1 00:00:42 10° NE 00:06:54 48° NW 00:13:06 10° WSW
Cosmos 2082 Rocket 3.8 00:04:49 10° NW 00:08:58 24° W 00:08:58 24° W
Lacrosse 5 rocket 4.2 00:13:03 10° NNE 00:13:03 10° NNE 00:13:07 10° NNE
Meteor 2-4 Rocket 4.0 00:05:28 10° N 00:09:56 60° NNE 00:09:56 60° NNE
Meteor 1-11 Rocket 4.3 00:17:27 53° WNW 00:17:27 53° WNW 00:23:01 10° N
H-2A R/B 4.3 00:36:06 10° NNE 00:38:33 32° NNE 00:38:33 32° NNE
Cosmos 1605 Rocket 4.3 00:47:50 60° WNW 00:47:50 60° WNW 00:53:50 10° N
Cosmos 2369 Rocket 3.0 00:57:32 46° NW 00:57:32 46° NW 01:02:24 10° N
MOS 1-B Rocket 4.1 00:58:33 73° N 00:58:33 73° N 01:04:32 10° NNW
ATLAS 3B CENTAUR R/B 4.5 01:01:11 49° SSE 01:01:11 49° SSE 01:25:56 10° E
CZ-2C R/B 4.2 01:04:53 36° NE 01:04:53 36° NE 01:08:19 10° N
Cosmos 2173 Rocket 4.3 01:05:19 63° NE 01:05:19 63° NE 01:10:48 10° N
Cosmos 2219 4.5 01:03:25 10° N 01:08:26 31° ENE 01:08:34 31° ENE
Lacrosse 5 3.5 01:09:48 30° NW 01:10:10 30° NW 01:14:39 10° NNE
CZ-2C R/B 3.4 01:06:56 10° NNE 01:10:38 47° NNE 01:10:38 47° NNE
NOSS 3-1 (A) 4.3 01:13:06 10° NW 01:19:56 53° W 01:19:56 53° W
Cosmos 968 Rocket 4.5 01:19:22 10° NNW 01:23:08 44° NNE 01:23:08 44° NNE
Cosmos 1943 Rocket 2.9 01:37:33 48° NNW 01:37:33 48° NNW 01:42:05 10° NNE
Cosmos 2098 Rocket 4.3 01:41:51 67° E 01:41:51 67° E 01:49:09 10° NNE
ATLAS 2AS CENTAUR R/B 2.8 01:34:04 10° NNW 01:42:13 86° ENE 01:42:50 78° SE
CZ-3B DEB 4.4 01:16:03 10° NW 01:49:55 73° WSW 01:55:06 48° S
Cosmos 44 4.2 02:06:00 10° NNW 02:10:31 47° NE 02:10:31 47° NE
ISS 0.3 02:23:42 10° N 02:24:40 11° NNE 02:25:39 10° NNE
BREEZE-M DEB (TANK) 3.9 02:14:37 10° WNW 02:26:40 58° NNE 02:28:18 36° E
Cosmos 2233 Rocket 3.8 02:27:50 84° NW 02:27:50 84° NW 02:33:51 10° N
CZ-2D R/B 4.4 02:34:04 10° NE 02:37:15 16° E 02:39:14 13° ESE
SeaSat 1 3.4 02:44:12 37° NW 02:44:12 37° NW 02:47:17 10° NNW
ATLAS CENTAUR R/B 3.0 02:43:06 35° E 02:43:06 35° E 02:47:04 10° NE
Cosmos 1697 Rocket 4.3 02:42:23 23° ESE 02:43:18 24° E 02:47:42 10° NE
Meteor 2-17 Rocket 4.4 02:45:29 65° W 02:45:31 65° W 02:51:37 10° N
Meteor 1-15 Rocket 4.4 02:45:49 65° WNW 02:45:49 65° WNW 02:51:31 10° N
Cosmos 2082 4.4 02:40:24 10° NNW 02:45:53 50° ENE 02:47:55 34° ESE
Cosmos 1980 Rocket 4.3 02:49:34 14° ESE 02:51:28 16° E 02:54:45 10° ENE
IRS-P3 4.0 02:49:32 10° N 02:54:49 78° WNW 02:54:49 78° WNW
Meteor 2-5 Rocket 4.2 02:51:13 10° N 02:57:02 60° ENE 02:58:45 43° SE
Cosmos 2227 Rocket 2.4 02:51:23 10° NNW 02:57:03 67° ENE 02:58:36 47° SE
Cosmos 1072 Rocket 4.4 03:01:07 65° S 03:02:11 90° WNW 03:08:38 10° N
Cosmos 1898 Rocket 4.0 02:57:28 10° N 03:02:46 59° ENE 03:04:20 42° SE
CBERS 1 LM4 rocket 4.3 03:06:19 10° NNE 03:11:07 77° ESE 03:11:16 76° SE
Cosmos 1891 Rocket 4.4 03:09:49 54° SSE 03:11:12 75° E 03:17:18 10° N
Cosmos 2278 3.7 03:12:02 62° W 03:12:32 66° WNW 03:18:11 10° NNE
Cosmos 2369 3.6 03:13:13 67° WSW 03:13:46 73° WNW 03:19:27 10° NNE
Cosmos 220 Rocket 4.2 03:10:08 10° NNW 03:14:06 69° NNE 03:14:06 69° NNE
Geosat 3.9 03:10:36 10° NNE 03:15:38 76° WNW 03:15:57 73° W
Cosmos 1937 Rocket 4.1 03:10:41 10° N 03:15:46 54° ENE 03:18:26 27° SE
NOAA 9 4.5 03:12:27 10° NNE 03:17:54 87° WNW 03:18:37 68° SSW
Cosmos 1763 Rocket 4.3 03:16:51 37° SE 03:18:03 43° ESE 03:22:57 10° NNE
Cosmos 2297 Rocket 2.3 03:12:54 10° NNW 03:18:34 71° ENE 03:21:32 29° SE
USA 161 3.8 03:21:36 24° NNE 03:21:36 24° NNE 03:23:02 10° N
Resurs 1-4 Rocket 3.1 03:15:38 10° NNE 03:20:32 39° E 03:22:30 29° SE
AQUA 3.9 03:16:44 10° N 03:21:22 59° WNW 03:21:22 59° WNW
NPP 3.9 03:18:45 10° N 03:23:57 50° WNW 03:24:27 48° W
Cosmos 2034 Rocket 3.9 03:23:22 51° S 03:25:05 88° W 03:31:19 10° N
ADEOS 3.4 03:19:53 10° NNE 03:25:07 87° WNW 03:25:56 65° SSW
Okean O Rocket 4.2 03:23:46 10° ENE 03:25:56 13° E 03:28:06 10° ESE
Cosmos 405 Rocket 3.3 03:23:26 10° NNW 03:26:39 52° NNW 03:26:39 52° NNW
ARIANE 5 R/B 2.8 03:23:21 10° NNE 03:28:26 62° E 03:29:52 44° SSE
SL-16 R/B 3.0 03:24:58 15° SSE 03:30:03 60° ENE 03:36:07 10° N
Cosmos 1766 3.9 03:30:17 48° ESE 03:30:36 50° E 03:34:26 10° NNE
ERS-1 4.4 03:29:45 10° NNE 03:34:50 87° WNW 03:35:50 59° SSW
OAO 1 4.4 03:34:50 59° SSW 03:35:20 63° S 03:40:44 10° E
Milstar 3 Cent rocket 3.3 03:36:28 29° SSE 03:36:28 29° SSE 03:42:02 10° ESE
Nadezhda 4 Rocket 4.1 03:32:06 10° N 03:38:18 74° E 03:42:21 23° SSE
Cosmos 1378 4.0 03:36:25 10° N 03:40:06 46° E 03:41:11 35° SE
BREEZE-M DEB (TANK) 3.9 03:38:17 30° W 03:40:28 46° NW 03:43:22 10° NE
Meteor 1-22 Rocket 4.4 03:38:26 39° S 03:40:49 83° E 03:46:58 10° N
Cosmos-2242 4.4 03:39:30 22° SE 03:41:29 34° E 03:45:23 10° NNE
Meteor 1-24 Rocket 3.8 03:37:38 10° N 03:43:24 85° E 03:46:45 27° S
Spot 4 Rocket 4.1 03:38:57 10° N 03:44:04 66° WNW 03:45:14 50° SW
Cosmos 1408 Rocket 4.2 03:40:07 10° N 03:44:25 53° E 03:46:47 25° SSE
UNKNOWN OBJECT B 3.8 03:42:22 10° NNE 03:46:03 39° E 03:47:13 31° SE
Cosmos 1766 Rocket 4.3 03:42:40 10° N 03:46:59 52° E 03:49:41 21° SSE
SL-24 R/B 4.2 03:48:50 38° S 03:50:44 80° WSW 03:55:20 10° NNW
Cosmos 1758 4.5 03:49:04 25° SE 03:50:49 39° E 03:54:34 10° NNE
ERS-2 3.2 03:48:10 10° N 03:51:12 33° WNW 03:51:12 33° WNW
Cosmos 1814 Rocket 4.5 03:53:05 39° WSW 03:54:22 47° WNW 03:59:34 10° N
IRS-1D 3.3 03:49:30 10° N 03:54:28 81° WNW 03:56:09 43° SSW
Cosmos 2298 Rocket 4.5 03:50:38 10° NW 03:55:31 39° W 03:55:44 38° WSW
Cosmos 1953 3.1 03:54:25 29° SSE 03:56:07 47° E 04:00:02 10° NNE
EO 1 Del DPAF 3.5 03:54:44 32° SSE 03:56:23 69° ENE 04:00:16 10° N
SME Rocket 4.0 03:53:44 28° S 03:56:49 75° WSW 04:04:52 10° NNW
GPS 2-04 Rocket1 2.7 03:57:57 57° S 03:57:57 57° S 04:01:42 10° E
MOS 1-B 4.5 03:54:39 10° NNE 04:00:29 74° ESE 04:04:00 25° S
ISS -1.9 03:58:43 10° NW 04:01:49 39° NE 04:04:54 10° ESE
Cosmos 1805 4.0 04:01:09 27° SSE 04:02:57 50° E 04:06:45 10° NNE
Cosmos 1441 Rocket 3.3 03:59:44 10° N 04:03:44 82° E 04:05:35 31° SSE
Cosmos 1656 4.1 04:03:16 34° WSW 04:05:19 50° WNW 04:10:50 10° NNE
Cosmos 1707 4.2 04:04:45 10° NNW 04:07:17 24° WNW 04:07:17 24° WNW
UNK 3.7 04:09:14 31° S 04:11:24 63° W 04:16:03 10° NNW
Cosmos 1634 Rocket 4.0 04:07:47 20° S 04:12:21 83° E 04:18:40 10° N
NOSS 7 (H) 4.3 04:15:21 53° W 04:15:48 62° NW 04:19:06 10° NNE
CZ-2D R/B 2.3 04:12:20 10° N 04:17:44 62° WNW 04:20:34 28° SW
Cosmos 990 Rocket 4.2 04:16:16 10° NNW 04:21:21 50° WSW 04:24:59 18° S
ATLAS CENTAUR R/B 3.1 04:19:27 22° W 04:21:38 30° NW 04:26:02 10° NNE
ASTRO E2 4.2 04:23:27 21° S 04:23:27 21° S 04:25:53 10° SE
CZ-2D R/B 3.5 04:19:20 10° NNE 04:23:42 88° E 04:26:27 23° SSW
Cosmos 1697 Rocket 3.2 04:24:08 26° WSW 04:26:56 44° WNW 04:32:21 10° N
Cosmos 1092 Rocket 4.0 04:21:07 10° NNW 04:27:18 62° W 04:33:01 12° S
In-Cosmos 22 4.0 04:22:32 10° N 04:27:50 84° W 04:33:08 10° S
IRS-1C Rocket 4.2 04:24:11 10° NNE 04:29:27 76° ESE 04:34:03 14° S
CZ-2C R/B 4.1 04:25:26 10° SSE 04:30:06 66° ENE 04:34:42 10° N
RESURS DK-1 4.4 04:26:28 10° N 04:30:10 31° ENE 04:33:52 10° ESE
ADEOS II 4.4 04:27:36 10° NE 04:31:36 21° E 04:35:33 10° SE
Cosmos 1627 Rocket 4.5 04:26:38 10° N 04:32:58 89° W 04:39:11 10° S
Cosmos 1544 3.2 04:31:10 18° S 04:33:45 73° E 04:37:25 10° NNE
Cosmos 1980 Rocket 2.3 04:31:21 23° SW 04:34:50 63° WNW 04:40:28 10° NNE
Cosmos 2227 Rocket 3.8 04:37:19 10° WNW 04:40:20 15° W 04:40:20 15° W
GEOS 3 Rocket 3.8 04:36:18 10° SSE 04:41:19 47° WSW 04:46:19 10° NW
Cosmos 2322 Rocket 2.6 04:40:28 10° S 04:45:58 62° ESE 04:51:31 10° NNE
Cosmos 1674 3.2 04:43:06 10° N 04:46:50 59° E 04:50:31 10° SSE
ARGOS Delta rocket 4.2 04:42:10 10° NNE 04:47:16 69° E 04:52:03 10° S
Abrixas 3.7 04:46:51 10° NW 04:49:49 44° NNE 04:52:46 10° ESE
Cosmos 1125 Rocket 3.4 04:45:46 10° NNW 04:50:57 68° WSW 04:56:05 10° S
CZ-3 Stage 3 4.2 04:14:52 10° W 04:54:27 57° SSW 05:00:52 10° ESE
Cosmos 1500 Rocket 3.5 04:50:44 10° N 04:55:08 77° W 04:59:29 10° S
Cosmos 2151 4.1 04:51:08 10° N 04:55:18 47° E 04:59:27 10° SSE
NOSS 3-4 (A) 4.3 04:49:23 10° NW 04:55:46 36° WSW 05:02:25 10° S
NOSS 3-4 (C) 4.3 04:49:29 10° NW 04:55:54 37° WSW 05:02:37 10° S
Cosmos 1470 2.7 04:54:37 10° S 04:58:32 83° W 05:02:32 10° N
ADEOS Rocket 4.4 04:52:40 10° NNE 04:58:56 45° E 05:05:48 10° S
Cosmos 1743 Rocket 3.9 04:55:43 10° NNW 04:59:51 44° W 05:03:58 10° SSW
PSLV R/B 4.1 04:56:25 10° N 05:00:08 46° WNW 05:03:12 14° SW
Resurs 1-4 Rocket 3.4 04:55:58 10° NNW 05:00:08 24° WNW 05:03:34 13° WSW
CZ-4B R/B 2.7 04:56:51 10° N 05:00:47 80° WNW 05:04:31 10° SSW
Cosmos 2297 Rocket 3.8 04:59:06 10° WNW 05:01:54 14° W 05:03:14 13° WSW
Okean O Rocket 1.9 04:58:19 10° N 05:02:34 49° WNW 05:06:37 11° SSW
MOZ.5/SAFIR/RUBIN 5/SL-8 3.8 04:58:50 10° S 05:03:31 62° W 05:08:10 10° NNW
Cosmos 1437 3.6 05:02:13 10° NNW 05:05:14 32° W 05:08:14 10° SSW
ARIANE 5 R/B 4.3 05:04:03 10° NNW 05:07:02 16° WNW 05:10:01 10° W
Cosmos 2279 Rocket 4.1 05:01:35 10° SSW 05:07:46 62° W 05:13:58 10° N
SL-16 R/B 3.8 05:10:04 11° SW 05:14:03 19° W 05:18:21 10° NW
SL-16 R/B 2.2 05:12:57 10° SSW 05:18:37 76° WNW 05:24:19 10° NNE
Cosmos 2221 2.8 05:15:41 10° S 05:19:55 73° E 05:24:12 10° NNE
Cosmos 332 Rocket 4.4 05:17:24 10° SW 05:21:54 40° WNW 05:26:29 10° N
Thor Agena Rocket 3.7 05:21:45 10° S 05:26:37 50° W 05:31:31 10° NNW
Cosmos 540 Rocket 4.3 05:25:19 10° SW 05:29:59 34° WNW 05:34:41 10° N
Meteor 1-31 Rocket 4.1 05:27:06 10° NNE 05:30:50 42° E 05:34:31 10° S
Cosmos 2322 4.5 05:30:46 10° S 05:36:18 55° ESE 05:41:54 10° NNE
Cosmos 2266 Rocket 4.1 05:30:19 10° N 05:36:29 90° NE 05:42:44 10° S
Cosmos 2263 Rocket 2.7 05:31:38 10° NNW 05:37:12 67° ENE 05:42:44 10° SSE
